Find Isis 1

NORAD ID: 3669 Int'l Des: 1969-009 Owner: CRC Country: CA operational
MEOELLIPTICALPOLAR

Live-Position

3D-Globus wird geladen...

Über Isis 1

Beschreibung wird geladen...

Nächste Überflüge

Passes for default location (London). Set your location on the main map for personalized predictions.

Höhenverlauf

Loading altitude history...

Zweizeiliger Elementsatz

1 3669U 69009A 26119.33992627 .00000139 00000-0 95784-4 0 9998
2 3669 88.4440 149.7683 1706857 346.9543 9.2089 11.30425061354250
Epoch: 29. Apr. 2026 • Age: 12 hours

Aktueller Status

Höhe 2543.1 km
Geschwindigkeit 6.48 km/s
Subsatellitenpunkt -46.06°S, 169.91°E
Typ other

Most Searched